Time,TemperatureF,DewpointF,PressureIn,WindDirection,WindDirectionDegrees,WindSpeedMPH,WindSpeedGustMPH,Humidity,HourlyPrecipIn,Conditions,Clouds,dailyrainin,SoftwareType,DateUTC
2013-02-21 00:09:00,38.7,35.0,29.90,NNE,18,4.0,4.0,86,0.00,,,0.00,weatherlink.com 1.10,2013-02-20 23:09:00,
2013-02-21 00:24:00,38.4,34.0,29.90,NNE,22,3.0,4.0,85,0.00,,,0.00,weatherlink.com 1.10,2013-02-20 23:24:00,
2013-02-21 00:40:00,37.7,34.0,29.90,NE,39,2.0,2.0,87,0.00,,,0.00,weatherlink.com 1.10,2013-02-20 23:40:00,
2013-02-21 00:54:00,39.2,35.0,29.90,NE,41,2.0,3.0,85,0.00,,,0.00,weatherlink.com 1.10,2013-02-20 23:54:00,
2013-02-21 01:09:00,39.9,35.0,29.89,NE,41,3.0,3.0,83,0.00,,,0.00,weatherlink.com 1.10,2013-02-21 00:09:00,
2013-02-21 01:24:00,40.3,35.0,29.89,NE,43,3.0,3.0,82,0.00,,,0.00,weatherlink.com 1.10,2013-02-21 00:24:00,
2013-02-21 01:40:00,40.2,35.0,29.88,NE,45,3.0,4.0,82,0.00,,,0.00,weatherlink.com 1.10,2013-02-21 00:40:00,
2013-02-21 01:55:00,40.0,35.0,29.88,NE,45,2.0,4.0,81,0.00,,,0.00,weatherlink.com 1.10,2013-02-21 00:55:00,
2013-02-21 02:10:00,41.2,35.0,29.87,NE,53,4.0,4.0,78,0.00,,,0.00,weatherlink.com 1.10,2013-02-21 01:10:00,
2013-02-21 02:25:00,41.1,34.0,29.86,NE,41,3.0,4.0,77,0.00,,,0.00,weatherlink.com 1.10,2013-02-21 01:25:00,
2013-02-21 02:40:00,39.7,34.0,29.86,NNE,30,3.0,3.0,79,0.00,,,0.00,weatherlink.com 1.10,2013-02-21 01:40:00,
2013-02-21 02:55:00,38.3,33.0,29.86,NNE,27,4.0,5.0,82,0.00,,,0.00,weatherlink.com 1.10,2013-02-21 01:55:00,
2013-02-21 03:10:00,38.4,33.0,29.85,North,9,4.0,5.0,82,0.00,,,0.00,weatherlink.com 1.10,2013-02-21 02:10:00,
2013-02-21 03:25:00,38.5,33.0,29.85,NNE,15,4.0,5.0,82,0.00,,,0.00,weatherlink.com 1.10,2013-02-21 02:25:00,
2013-02-21 03:40:00,38.5,33.0,29.84,North,6,3.0,5.0,82,0.00,,,0.00,weatherlink.com 1.10,2013-02-21 02:40:00,
2013-02-21 03:55:00,38.3,34.0,29.84,NNE,15,5.0,5.0,83,0.00,,,0.00,weatherlink.com 1.10,2013-02-21 02:55:00,
2013-02-21 04:10:00,38.4,34.0,29.83,NNE,20,4.0,5.0,83,0.00,,,0.00,weatherlink.com 1.10,2013-02-21 03:10:00,
2013-02-21 04:26:00,38.2,34.0,29.83,NNE,24,4.0,5.0,85,0.00,,,0.00,weatherlink.com 1.10,2013-02-21 03:26:00,
2013-02-21 04:40:00,38.8,34.0,29.82,NNE,13,5.0,5.0,84,0.00,,,0.00,weatherlink.com 1.10,2013-02-21 03:40:00,
2013-02-21 04:55:00,38.6,34.0,29.82,NNE,20,5.0,5.0,84,0.00,,,0.00,weatherlink.com 1.10,2013-02-21 03:55:00,
2013-02-21 05:10:00,38.2,34.0,29.81,NNE,22,4.0,5.0,84,0.00,,,0.00,weatherlink.com 1.10,2013-02-21 04:10:00,
2013-02-21 05:26:00,38.7,34.0,29.81,NNE,13,4.0,5.0,83,0.00,,,0.00,weatherlink.com 1.10,2013-02-21 04:26:00,
2013-02-21 05:40:00,38.6,34.0,29.80,NNE,20,4.0,5.0,82,0.00,,,0.00,weatherlink.com 1.10,2013-02-21 04:40:00,
2013-02-21 05:55:00,37.6,33.0,29.80,NNE,20,4.0,5.0,83,0.00,,,0.00,weatherlink.com 1.10,2013-02-21 04:55:00,
2013-02-21 06:10:00,36.4,32.0,29.80,NNE,32,1.0,4.0,85,0.00,,,0.00,weatherlink.com 1.10,2013-02-21 05:10:00,
2013-02-21 06:25:00,36.7,33.0,29.80,NNE,15,1.0,3.0,85,0.00,,,0.00,weatherlink.com 1.10,2013-02-21 05:25:00,
2013-02-21 06:40:00,36.4,32.0,29.80,NNE,24,4.0,4.0,85,0.00,,,0.00,weatherlink.com 1.10,2013-02-21 05:40:00,
2013-02-21 06:55:00,36.9,33.0,29.79,NNE,20,4.0,5.0,84,0.00,,,0.00,weatherlink.com 1.10,2013-02-21 05:55:00,
2013-02-21 07:10:00,37.2,33.0,29.80,North,11,4.0,4.0,83,0.00,,,0.00,weatherlink.com 1.10,2013-02-21 06:10:00,
2013-02-21 07:25:00,38.0,33.0,29.80,North,8,3.0,4.0,82,0.00,,,0.00,weatherlink.com 1.10,2013-02-21 06:25:00,
2013-02-21 07:40:00,38.4,33.0,29.80,North,9,2.0,4.0,81,0.00,,,0.00,weatherlink.com 1.10,2013-02-21 06:40:00,
2013-02-21 07:55:00,39.1,34.0,29.80,NNE,26,3.0,4.0,81,0.00,,,0.00,weatherlink.com 1.10,2013-02-21 06:55:00,
2013-02-21 08:10:00,40.4,35.0,29.80,NNE,22,2.0,4.0,80,0.00,,,0.00,weatherlink.com 1.10,2013-02-21 07:10:00,
2013-02-21 08:25:00,42.0,35.0,29.80,NNE,12,2.0,3.0,77,0.00,,,0.00,weatherlink.com 1.10,2013-02-21 07:25:00,
2013-02-21 08:40:00,43.6,36.0,29.80,NNE,24,0.0,2.0,74,0.00,,,0.00,weatherlink.com 1.10,2013-02-21 07:40:00,
2013-02-21 08:55:00,44.3,35.0,29.80,SW,236,0.0,3.0,70,0.00,,,0.00,weatherlink.com 1.10,2013-02-21 07:55:00,
2013-02-21 09:10:00,44.6,35.0,29.80,North,8,0.0,4.0,69,0.00,,,0.00,weatherlink.com 1.10,2013-02-21 08:10:00,
2013-02-21 09:26:00,44.7,35.0,29.80,NW,306,0.0,4.0,68,0.00,,,0.00,weatherlink.com 1.10,2013-02-21 08:26:00,
2013-02-21 09:41:00,44.9,35.0,29.80,NW,304,5.0,6.0,68,0.00,,,0.00,weatherlink.com 1.10,2013-02-21 08:41:00,
2013-02-21 09:56:00,45.5,35.0,29.80,NNW,329,3.0,7.0,67,0.00,,,0.00,weatherlink.com 1.10,2013-02-21 08:56:00,
2013-02-21 10:11:00,45.6,36.0,29.80,NW,323,2.0,5.0,68,0.00,,,0.00,weatherlink.com 1.10,2013-02-21 09:11:00,
2013-02-21 10:26:00,45.9,35.0,29.80,WSW,255,4.0,5.0,66,0.00,,,0.00,weatherlink.com 1.10,2013-02-21 09:26:00,
2013-02-21 10:41:00,46.5,35.0,29.80,West,264,1.0,5.0,64,0.00,,,0.00,weatherlink.com 1.10,2013-02-21 09:41:00,
2013-02-21 10:56:00,47.0,36.0,29.80,NW,316,1.0,6.0,65,0.00,,,0.00,weatherlink.com 1.10,2013-02-21 09:56:00,
2013-02-21 11:11:00,47.3,34.0,29.80,NW,321,3.0,7.0,60,0.00,,,0.00,weatherlink.com 1.10,2013-02-21 10:11:00,
2013-02-21 11:26:00,47.3,32.0,29.79,WNW,293,4.0,8.0,56,0.00,,,0.00,weatherlink.com 1.10,2013-02-21 10:26:00,
2013-02-21 11:41:00,47.6,32.0,29.79,WNW,283,4.0,6.0,56,0.00,,,0.00,weatherlink.com 1.10,2013-02-21 10:41:00,
2013-02-21 11:56:00,48.0,33.0,29.79,North,11,2.0,7.0,57,0.00,,,0.00,weatherlink.com 1.10,2013-02-21 10:56:00,
2013-02-21 12:11:00,48.4,34.0,29.78,NW,313,1.0,8.0,58,0.00,,,0.00,weatherlink.com 1.10,2013-02-21 11:11:00,
2013-02-21 12:26:00,48.3,34.0,29.77,West,264,1.0,8.0,59,0.00,,,0.00,weatherlink.com 1.10,2013-02-21 11:26:00,
2013-02-21 12:41:00,48.6,35.0,29.76,NW,314,3.0,8.0,60,0.00,,,0.00,weatherlink.com 1.10,2013-02-21 11:41:00,
2013-02-21 12:56:00,48.9,35.0,29.76,WNW,293,5.0,8.0,59,0.00,,,0.00,weatherlink.com 1.10,2013-02-21 11:56:00,
2013-02-21 13:11:00,49.0,35.0,29.75,North,353,2.0,9.0,60,0.00,,,0.00,weatherlink.com 1.10,2013-02-21 12:11:00,
2013-02-21 13:26:00,49.5,35.0,29.75,WNW,290,3.0,8.0,57,0.00,,,0.00,weatherlink.com 1.10,2013-02-21 12:26:00,
2013-02-21 13:41:00,50.3,35.0,29.74,WSW,256,0.0,6.0,57,0.00,,,0.00,weatherlink.com 1.10,2013-02-21 12:41:00,
2013-02-21 13:56:00,50.5,35.0,29.73,WSW,246,7.0,8.0,56,0.00,,,0.00,weatherlink.com 1.10,2013-02-21 12:56:00,
2013-02-21 14:11:00,49.8,35.0,29.73,ESE,106,2.0,8.0,57,0.00,,,0.00,weatherlink.com 1.10,2013-02-21 13:11:00,
2013-02-21 14:26:00,49.7,35.0,29.73,West,266,4.0,8.0,57,0.00,,,0.00,weatherlink.com 1.10,2013-02-21 13:26:00,
2013-02-21 14:41:00,49.5,37.0,29.73,WSW,238,6.0,8.0,62,0.00,,,0.00,weatherlink.com 1.10,2013-02-21 13:41:00,
2013-02-21 14:56:00,47.9,37.0,29.73,West,267,3.0,8.0,66,0.00,,,0.00,weatherlink.com 1.10,2013-02-21 13:56:00,
2013-02-21 15:11:00,47.8,38.0,29.73,WSW,245,2.0,5.0,70,0.00,,,0.00,weatherlink.com 1.10,2013-02-21 14:11:00,
2013-02-21 15:26:00,47.9,39.0,29.72,SW,225,1.0,5.0,70,0.00,,,0.00,weatherlink.com 1.10,2013-02-21 14:26:00,
2013-02-21 15:41:00,49.0,39.0,29.72,South,176,4.0,9.0,69,0.00,,,0.00,weatherlink.com 1.10,2013-02-21 14:41:00,
2013-02-21 15:56:00,48.7,40.0,29.72,SSW,198,2.0,12.0,71,0.00,,,0.00,weatherlink.com 1.10,2013-02-21 14:56:00,
2013-02-21 16:11:00,48.7,40.0,29.72,WSW,238,8.0,10.0,73,0.00,,,0.00,weatherlink.com 1.10,2013-02-21 15:11:00,
2013-02-21 16:26:00,48.9,41.0,29.71,SW,214,3.0,9.0,73,0.00,,,0.00,weatherlink.com 1.10,2013-02-21 15:26:00,
2013-02-21 16:41:00,48.3,40.0,29.71,SW,233,3.0,6.0,72,0.00,,,0.00,weatherlink.com 1.10,2013-02-21 15:41:00,
2013-02-21 16:56:00,47.5,39.0,29.71,WSW,248,4.0,6.0,72,0.00,,,0.00,weatherlink.com 1.10,2013-02-21 15:56:00,
2013-02-21 17:11:00,47.2,41.0,29.71,SW,227,5.0,8.0,79,0.00,,,0.00,weatherlink.com 1.10,2013-02-21 16:11:00,
2013-02-21 17:26:00,46.9,41.0,29.71,SW,217,1.0,6.0,80,0.00,,,0.00,weatherlink.com 1.10,2013-02-21 16:26:00,
2013-02-21 17:41:00,46.2,40.0,29.71,West,264,4.0,9.0,80,0.00,,,0.00,weatherlink.com 1.10,2013-02-21 16:41:00,
2013-02-21 17:56:00,45.7,40.0,29.71,West,273,3.0,6.0,81,0.00,,,0.00,weatherlink.com 1.10,2013-02-21 16:56:00,
2013-02-21 18:12:00,45.5,40.0,29.71,West,269,1.0,6.0,81,0.00,,,0.00,weatherlink.com 1.10,2013-02-21 17:12:00,
2013-02-21 18:27:00,45.6,40.0,29.71,NW,308,0.0,3.0,80,0.00,,,0.00,weatherlink.com 1.10,2013-02-21 17:27:00,
2013-02-21 18:42:00,45.5,40.0,29.71,WSW,240,0.0,2.0,80,0.00,,,0.00,weatherlink.com 1.10,2013-02-21 17:42:00,
2013-02-21 18:57:00,44.9,40.0,29.72,WSW,243,0.0,1.0,82,0.00,,,0.00,weatherlink.com 1.10,2013-02-21 17:57:00,
2013-02-21 19:12:00,44.3,39.0,29.71,SW,227,0.0,1.0,83,0.00,,,0.00,weatherlink.com 1.10,2013-02-21 18:12:00,
2013-02-21 19:27:00,43.9,39.0,29.71,ENE,72,1.0,2.0,84,0.00,,,0.00,weatherlink.com 1.10,2013-02-21 18:27:00,
2013-02-21 19:42:00,43.8,39.0,29.71,NE,54,0.0,2.0,84,0.00,,,0.00,weatherlink.com 1.10,2013-02-21 18:42:00,
2013-02-21 19:57:00,43.9,39.0,29.71,East,96,0.0,4.0,84,0.00,,,0.00,weatherlink.com 1.10,2013-02-21 18:57:00,
2013-02-21 20:12:00,44.2,40.0,29.71,ESE,120,2.0,4.0,84,0.00,,,0.00,weatherlink.com 1.10,2013-02-21 19:12:00,
2013-02-21 20:27:00,44.7,40.0,29.71,SE,124,0.0,3.0,84,0.00,,,0.00,weatherlink.com 1.10,2013-02-21 19:27:00,
2013-02-21 20:42:00,44.9,40.0,29.71,South,181,3.0,4.0,84,0.00,,,0.00,weatherlink.com 1.10,2013-02-21 19:42:00,
2013-02-21 20:57:00,44.9,40.0,29.71,East,94,1.0,5.0,83,0.00,,,0.00,weatherlink.com 1.10,2013-02-21 19:57:00,
2013-02-21 21:12:00,45.1,40.0,29.70,ESE,117,1.0,3.0,83,0.00,,,0.00,weatherlink.com 1.10,2013-02-21 20:12:00,
2013-02-21 21:27:00,45.1,41.0,29.70,ESE,122,1.0,6.0,84,0.00,,,0.00,weatherlink.com 1.10,2013-02-21 20:27:00,
2013-02-21 21:42:00,45.1,41.0,29.70,ESE,106,1.0,4.0,84,0.00,,,0.00,weatherlink.com 1.10,2013-02-21 20:42:00,
2013-02-21 21:57:00,45.1,41.0,29.69,SE,140,3.0,8.0,85,0.00,,,0.00,weatherlink.com 1.10,2013-02-21 20:57:00,
2013-02-21 22:12:00,45.1,41.0,29.69,East,82,2.0,4.0,85,0.00,,,0.00,weatherlink.com 1.10,2013-02-21 21:12:00,
2013-02-21 22:27:00,45.3,41.0,29.69,ESE,106,2.0,6.0,86,0.00,,,0.00,weatherlink.com 1.10,2013-02-21 21:27:00,
2013-02-21 22:42:00,45.3,41.0,29.69,SE,134,2.0,6.0,86,0.00,,,0.00,weatherlink.com 1.10,2013-02-21 21:42:00,
2013-02-21 22:57:00,45.2,42.0,29.68,SE,143,2.0,6.0,87,0.00,,,0.00,weatherlink.com 1.10,2013-02-21 21:57:00,
2013-02-21 23:12:00,45.2,42.0,29.68,ESE,107,3.0,5.0,87,0.00,,,0.00,weatherlink.com 1.10,2013-02-21 22:12:00,
2013-02-21 23:27:00,44.9,42.0,29.68,ENE,68,5.0,5.0,88,0.00,,,0.00,weatherlink.com 1.10,2013-02-21 22:27:00,
2013-02-21 23:42:00,44.7,42.0,29.68,South,177,2.0,5.0,90,0.02,,,0.02,weatherlink.com 1.10,2013-02-21 22:42:00,
2013-02-21 23:57:00,44.5,42.0,29.67,East,91,2.0,7.0,91,0.04,,,0.04,weatherlink.com 1.10,2013-02-21 22:57:00,